EW2485 Weather Reports


Display with metric or nautical units.
time (UTC)temp
F
wind
direction
speed
MPH
gust
MPH
rain 1hr
in
rain 24hr
in
rain mn
in
humidity
%
barometer
mb
20260906161519 69 341 10.0 17.0 0.00 0.00 0.00 74 1017.3
20260906160037 69 8 8.0 19.0 0.00 0.00 0.00 76 1017.3
20260906154601 68 20 10.0 21.0 0.00 0.00 0.00 76 1017.4
20260906153022 67 20 7.0 21.0 0.00 0.00 0.00 81 1017.3
20260906151539 65 32 10.0 18.0 0.00 0.00 0.00 83 1017.4
20260906150011 65 11 8.0 16.0 0.00 0.00 0.00 85 1017.2
20260906144526 65 30 6.0 17.0 0.00 0.00 0.00 87 1017.2
20260906143043 66 20 10.0 19.0 0.00 0.00 0.00 86 1017.0
20260906141503 64 44 6.0 17.0 0.00 0.00 0.00 90 1017.0
20260906140043 63 352 7.0 13.0 0.00 0.00 0.00 90 1016.9
20260906134515 65 341 5.0 16.0 0.00 0.00 0.00 90 1016.9
20260906133059 62 13 7.0 13.0 0.00 0.00 0.00 91 1016.9
20260906131534 61 322 6.0 11.0 0.00 0.00 0.00 91 1016.9
20260906130104 61 14 8.0 15.0 0.00 0.00 0.00 90 1016.8
20260906124508 61 4 12.0 19.0 0.00 0.00 0.00 90 1016.7
20260906123038 61 56 9.0 16.0 0.00 0.00 0.00 91 1016.4
20260906121548 61 6 6.0 13.0 0.00 0.00 0.00 91 1016.3
20260906120008 60 82 8.0 17.0 0.00 0.00 0.00 92 1016.2
20260906114533 60 344 6.0 12.0 0.00 0.00 0.00 94 1016.0
20260906113048 59 347 3.0 9.0 0.00 0.00 0.00 95 1016.0
20260906111519 58 13 4.0 8.0 0.00 0.00 0.00 94 1016.0
20260906110057 58 331 1.0 6.0 0.00 0.00 0.00 94 1015.8
20260906104535 58 35 5.0 8.0 0.00 0.00 0.00 94 1015.7
20260906103010 59 1 2.0 6.0 0.00 0.00 0.00 94 1015.6
20260906101540 59 314 3.0 6.0 0.00 0.00 0.00 94 1015.5
20260906100100 60 23 3.0 8.0 0.00 0.00 0.00 94 1015.4
20260906100001 60 46 2.0 8.0 0.00 0.00 0.00 94 1015.4
20260906094521 60 46 4.0 10.0 0.00 0.00 0.00 94 1015.1
20260906093056 60 72 2.0 5.0 0.00 0.00 0.00 94 1015.0
20260906091600 60 286 4.0 9.0 0.00 0.00 0.00 94 1014.8
20260906091502 60 309 5.0 9.0 0.00 0.00 0.00 94 1014.8
20260906090028 60 324 3.0 7.0 0.00 0.00 0.00 94 1014.8
20260906084552 61 324 2.0 10.0 0.00 0.00 0.00 95 1014.8
20260906083007 61 295 3.0 10.0 0.00 0.00 0.00 95 1014.7
20260906081525 60 4 2.0 7.0 0.00 0.00 0.00 95 1014.5
20260906074547 59 304 3.0 7.0 0.00 0.00 0.00 96 1014.5
20260906073021 57 124 1.0 2.0 0.00 0.00 0.00 94 1014.4
20260906071551 57 135 1.0 3.0 0.00 0.00 0.00 94 1014.5
20260906070020 58 89 1.0 3.0 0.00 0.00 0.00 94 1014.5
20260906064548 58 135 0.0 2.0 0.00 0.00 0.00 94 1014.5
20260906063013 58 1 2.0 3.0 0.00 0.00 0.00 94 1014.7
20260906061548 58 117 1.0 2.0 0.00 0.00 0.00 94 1014.7
20260906060009 58 105 1.0 2.0 0.00 0.00 0.00 94 1014.7
20260906054541 58 1 1.0 3.0 0.00 0.00 0.00 94 1014.8
20260906053118 60 89 2.0 4.0 0.00 0.00 0.00 93 1014.9
20260906053001 60 100 1.0 5.0 0.00 0.00 0.00 93 1015.0
20260906051536 60 308 3.0 6.0 0.00 0.00 0.00 95 1014.8
20260906050053 59 1 2.0 5.0 0.00 0.00 0.00 94 1014.8
20260906044535 59 344 2.0 7.0 0.00 0.00 0.00 96 1014.8
20260906043015 57 135 1.0 4.0 0.00 0.00 0.00 93 1014.9
20260906041552 57 41 1.0 4.0 0.00 0.00 0.00 93 1014.7
20260906040043 57 63 1.0 4.0 0.00 0.00 0.00 94 1014.8
20260906034508 56 1 1.0 3.0 0.00 0.00 0.00 93 1014.8
20260906033045 57 63 1.0 3.0 0.00 0.00 0.00 93 1014.6
20260906031530 57 1 1.0 2.0 0.00 0.00 0.00 93 1014.7
20260906030101 57 1 0.0 2.0 0.00 0.00 0.00 92 1014.6
20260906030003 57 46 0.0 2.0 0.00 0.00 0.00 92 1014.5
20260906024532 57 324 2.0 3.0 0.00 0.00 0.00 92 1014.4
20260906023100 57 15 1.0 3.0 0.00 0.00 0.00 92 1014.5
20260906021519 58 303 2.0 5.0 0.00 0.00 0.00 92 1014.3
20260906020040 58 46 1.0 2.0 0.00 0.00 0.00 91 1014.4
20260906014519 58 135 1.0 4.0 0.00 0.00 0.00 91 1014.4
20260906013034 59 63 1.0 2.0 0.00 0.00 0.00 90 1014.1
20260906011602 59 178 1.0 4.0 0.00 0.00 0.00 90 1014.0
20260906010054 60 46 0.0 2.0 0.00 0.00 0.00 90 1013.9
20260906004553 61 152 1.0 2.0 0.00 0.00 0.00 90 1013.7
20260906003028 62 321 2.0 4.0 0.00 0.00 0.00 89 1013.6
20260906001511 63 326 1.0 7.0 0.00 0.00 0.00 88 1013.5
20260906000054 64 28 0.0 6.0 0.00 0.00 0.00 87 1013.3
20260905234527 65 1 1.0 6.0 0.00 0.00 0.00 86 1013.3
20260905233052 66 340 4.0 9.0 0.00 0.00 0.00 86 1013.4
20260905231530 67 309 5.0 11.0 0.00 0.00 0.00 85 1013.4
20260905230048 68 6 5.0 16.0 0.00 0.00 0.00 83 1013.3
20260905224504 69 355 5.0 11.0 0.00 0.00 0.00 83 1013.3
20260905223037 68 8 4.0 8.0 0.00 0.00 0.00 85 1013.2
20260905221553 68 318 4.0 8.0 0.00 0.00 0.00 84 1013.2
20260905220008 69 322 5.0 10.0 0.00 0.00 0.00 83 1013.1
20260905214532 69 349 4.0 13.0 0.00 0.00 0.00 83 1012.9
20260905213018 70 336 3.0 14.0 0.00 0.00 0.00 82 1012.6
20260905211549 70 337 7.0 13.0 0.00 0.00 0.00 82 1012.5
20260905210033 70 327 4.0 13.0 0.00 0.00 0.00 81 1012.6
20260905204601 70 291 6.0 14.0 0.00 0.00 0.00 80 1012.6
20260905203029 71 1 6.0 14.0 0.00 0.00 0.00 80 1012.5
20260905201555 71 269 7.0 16.0 0.00 0.00 0.00 77 1012.5
20260905200010 71 33 9.0 18.0 0.00 0.00 0.00 78 1012.6
20260905194538 71 331 8.0 13.0 0.00 0.00 0.00 82 1012.6
20260905193003 70 20 8.0 16.0 0.00 0.00 0.00 81 1012.5
20260905191531 70 25 4.0 19.0 0.00 0.00 0.00 80 1012.5
20260905190100 70 355 5.0 15.0 0.00 0.00 0.00 81 1012.6
20260905184513 70 302 5.0 16.0 0.00 0.00 0.00 83 1012.6
20260905183109 71 352 10.0 16.0 0.00 0.00 0.00 81 1012.5
20260905181537 69 330 6.0 14.0 0.00 0.00 0.00 85 1012.5
20260905180023 69 349 9.0 17.0 0.00 0.00 0.00 83 1012.6
20260905174554 69 276 5.0 14.0 0.00 0.00 0.00 84 1012.6
20260905173023 71 296 5.0 13.0 0.00 0.00 0.00 85 1012.5
20260905171545 69 15 4.0 10.0 0.00 0.00 0.00 84 1012.6
20260905170004 69 335 8.0 19.0 0.00 0.00 0.00 81 1012.8
20260905164529 69 39 3.0 15.0 0.00 0.00 0.00 83 1012.7
20260905163049 68 44 6.0 13.0 0.00 0.00 0.00 85 1012.8